| time (UTC) | temp C | wind direction | speed KPH | gust KPH | rain 1hr cm | rain 24hr cm | rain mn cm | humidity % | barometer mb |
| 20260510164541 | 7 | 18 | 8.0 | 11.3 | 0.00 | 0.00 | 0.00 | 94 | 1033.5 |
| 20260510163038 | 7 | 11 | 8.0 | 12.9 | 0.00 | 0.00 | 0.00 | 94 | 1033.6 |
| 20260510161535 | 7 | 48 | 6.4 | 11.3 | 0.00 | 0.00 | 0.00 | 94 | 1033.8 |
| 20260510160034 | 7 | 347 | 4.8 | 12.9 | 0.00 | 0.00 | 0.00 | 94 | 1033.8 |
| 20260510154537 | 7 | 350 | 8.0 | 12.9 | 0.00 | 0.00 | 0.00 | 94 | 1033.8 |
| 20260510153028 | 7 | 3 | 6.4 | 12.9 | 0.00 | 0.00 | 0.00 | 93 | 1033.9 |
| 20260510151532 | 8 | 15 | 6.4 | 12.9 | 0.00 | 0.00 | 0.00 | 94 | 1033.9 |
| 20260510150025 | 8 | 339 | 8.0 | 11.3 | 0.00 | 0.00 | 0.00 | 94 | 1034.1 |
| 20260510144534 | 8 | 329 | 6.4 | 11.3 | 0.00 | 0.00 | 0.00 | 94 | 1034.1 |
| 20260510143025 | 8 | 37 | 3.2 | 9.7 | 0.00 | 0.00 | 0.00 | 93 | 1034.1 |
| 20260510141525 | 8 | 28 | 6.4 | 9.7 | 0.00 | 0.00 | 0.00 | 94 | 1034.2 |
| 20260510140014 | 8 | 352 | 6.4 | 11.3 | 0.00 | 0.00 | 0.00 | 93 | 1034.1 |
| 20260510134515 | 8 | 352 | 6.4 | 11.3 | 0.00 | 0.00 | 0.00 | 94 | 1034.1 |
| 20260510133019 | 8 | 12 | 6.4 | 14.5 | 0.00 | 0.00 | 0.00 | 94 | 1034.2 |
| 20260510131517 | 8 | 23 | 8.0 | 14.5 | 0.00 | 0.00 | 0.00 | 94 | 1034.1 |
| 20260510130015 | 8 | 25 | 6.4 | 11.3 | 0.00 | 0.00 | 0.00 | 93 | 1034.2 |
| 20260510124508 | 8 | 18 | 8.0 | 12.9 | 0.00 | 0.00 | 0.00 | 93 | 1034.2 |
| 20260510123006 | 8 | 349 | 6.4 | 12.9 | 0.00 | 0.00 | 0.00 | 93 | 1034.1 |
| 20260510121503 | 9 | 1 | 8.0 | 14.5 | 0.00 | 0.00 | 0.00 | 93 | 1034.2 |
| 20260510120101 | 9 | 29 | 6.4 | 12.9 | 0.00 | 0.00 | 0.00 | 93 | 1034.3 |
| 20260510114558 | 9 | 345 | 6.4 | 11.3 | 0.00 | 0.00 | 0.00 | 93 | 1034.3 |
| 20260510113056 | 9 | 13 | 4.8 | 11.3 | 0.00 | 0.00 | 0.00 | 93 | 1034.2 |
| 20260510111605 | 10 | 4 | 6.4 | 11.3 | 0.00 | 0.00 | 0.00 | 93 | 1034.2 |
| 20260510110051 | 10 | 52 | 4.8 | 9.7 | 0.00 | 0.00 | 0.00 | 92 | 1034.1 |
| 20260510104608 | 10 | 42 | 6.4 | 8.0 | 0.00 | 0.00 | 0.00 | 92 | 1034.1 |
| 20260510103046 | 10 | 55 | 6.4 | 9.7 | 0.00 | 0.00 | 0.00 | 91 | 1034.0 |
| 20260510101543 | 10 | 6 | 6.4 | 9.7 | 0.00 | 0.00 | 0.00 | 91 | 1033.9 |
| 20260510100042 | 10 | 13 | 4.8 | 9.7 | 0.00 | 0.00 | 0.00 | 91 | 1033.8 |
| 20260510094542 | 11 | 28 | 3.2 | 6.4 | 0.00 | 0.00 | 0.00 | 90 | 1033.7 |
| 20260510093038 | 11 | 26 | 3.2 | 4.8 | 0.00 | 0.00 | 0.00 | 89 | 1033.6 |
| 20260510091537 | 11 | 352 | 3.2 | 4.8 | 0.00 | 0.00 | 0.00 | 89 | 1033.5 |
| 20260510090035 | 12 | 20 | 1.6 | 3.2 | 0.00 | 0.00 | 0.00 | 88 | 1033.4 |
| 20260510084533 | 12 | 1 | 1.6 | 3.2 | 0.00 | 0.00 | 0.00 | 86 | 1033.2 |
| 20260510083031 | 12 | 141 | 0.0 | 0.0 | 0.00 | 0.00 | 0.00 | 86 | 1033.0 |
| 20260510081529 | 12 | 141 | 0.0 | 0.0 | 0.00 | 0.00 | 0.00 | 85 | 1032.7 |
| 20260510080032 | 13 | 141 | 0.0 | 0.0 | 0.00 | 0.00 | 0.00 | 84 | 1032.7 |
| 20260510074532 | 13 | 141 | 0.0 | 1.6 | 0.00 | 0.00 | 0.00 | 84 | 1032.5 |
| 20260510073025 | 13 | 151 | 0.0 | 1.6 | 0.00 | 0.00 | 0.00 | 83 | 1032.4 |
| 20260510071525 | 13 | 151 | 0.0 | 1.6 | 0.00 | 0.00 | 0.00 | 82 | 1032.2 |
| 20260510070024 | 14 | 152 | 0.0 | 1.6 | 0.00 | 0.00 | 0.00 | 80 | 1032.2 |
| 20260510064526 | 15 | 165 | 0.0 | 1.6 | 0.00 | 0.00 | 0.00 | 77 | 1032.1 |
| 20260510063023 | 15 | 141 | 0.0 | 1.6 | 0.00 | 0.00 | 0.00 | 75 | 1032.0 |
| 20260510061529 | 16 | 190 | 0.0 | 1.6 | 0.00 | 0.00 | 0.00 | 75 | 1032.0 |
| 20260510060040 | 15 | 189 | 0.0 | 6.4 | 0.00 | 0.00 | 0.00 | 77 | 1031.9 |
| 20260510054520 | 15 | 192 | 0.0 | 3.2 | 0.00 | 0.00 | 0.00 | 76 | 1031.8 |
| 20260510053019 | 15 | 187 | 1.6 | 6.4 | 0.00 | 0.00 | 0.00 | 76 | 1031.7 |
| 20260510051519 | 15 | 211 | 0.0 | 0.0 | 0.00 | 0.00 | 0.00 | 77 | 1031.7 |
| 20260510050017 | 15 | 193 | 0.0 | 4.8 | 0.00 | 0.00 | 0.00 | 79 | 1031.7 |
| 20260510044518 | 15 | 200 | 3.2 | 6.4 | 0.00 | 0.00 | 0.00 | 77 | 1031.6 |
| 20260510043016 | 15 | 192 | 0.0 | 6.4 | 0.00 | 0.00 | 0.00 | 78 | 1031.6 |
| 20260510041517 | 15 | 219 | 3.2 | 6.4 | 0.00 | 0.00 | 0.00 | 77 | 1031.5 |
| 20260510040015 | 15 | 214 | 3.2 | 6.4 | 0.00 | 0.00 | 0.00 | 77 | 1031.4 |
| 20260510034514 | 15 | 203 | 3.2 | 8.0 | 0.00 | 0.00 | 0.00 | 75 | 1031.5 |
| 20260510033013 | 15 | 191 | 1.6 | 6.4 | 0.00 | 0.00 | 0.00 | 75 | 1031.5 |
| 20260510031512 | 15 | 215 | 4.8 | 11.3 | 0.00 | 0.00 | 0.00 | 74 | 1031.5 |
| 20260510030010 | 16 | 262 | 0.0 | 6.4 | 0.00 | 0.00 | 0.00 | 72 | 1031.4 |
| 20260510024511 | 15 | 305 | 3.2 | 11.3 | 0.00 | 0.00 | 0.00 | 71 | 1031.5 |
| 20260510023017 | 15 | 268 | 1.6 | 16.1 | 0.00 | 0.00 | 0.00 | 74 | 1031.7 |
| 20260510021507 | 15 | 309 | 8.0 | 14.5 | 0.00 | 0.00 | 0.00 | 73 | 1031.8 |
| 20260510020005 | 15 | 274 | 4.8 | 9.7 | 0.00 | 0.00 | 0.00 | 76 | 1032.0 |
| 20260510014502 | 15 | 253 | 1.6 | 6.4 | 0.00 | 0.00 | 0.00 | 76 | 1032.1 |
| 20260510013003 | 15 | 240 | 4.8 | 14.5 | 0.00 | 0.00 | 0.00 | 77 | 1032.3 |
| 20260510011627 | 15 | 282 | 4.8 | 12.9 | 0.00 | 0.00 | 0.00 | 78 | 1032.3 |
| 20260510010109 | 15 | 232 | 1.6 | 8.0 | 0.00 | 0.00 | 0.00 | 79 | 1032.3 |
| 20260510004558 | 14 | 226 | 1.6 | 9.7 | 0.00 | 0.00 | 0.00 | 79 | 1032.4 |
| 20260510003103 | 14 | 262 | 3.2 | 9.7 | 0.00 | 0.00 | 0.00 | 81 | 1032.4 |
| 20260510001552 | 14 | 296 | 3.2 | 11.3 | 0.00 | 0.00 | 0.00 | 86 | 1032.2 |
| 20260510000050 | 13 | 321 | 4.8 | 14.5 | 0.00 | 0.00 | 0.00 | 87 | 1032.2 |
| 20260509234547 | 13 | 308 | 4.8 | 12.9 | 0.00 | 0.00 | 0.00 | 89 | 1032.1 |
| 20260509233042 | 12 | 300 | 4.8 | 11.3 | 0.00 | 0.00 | 0.00 | 90 | 1032.1 |
| 20260509231549 | 12 | 306 | 6.4 | 11.3 | 0.00 | 0.00 | 0.00 | 90 | 1031.9 |
| 20260509230041 | 12 | 290 | 4.8 | 11.3 | 0.00 | 0.00 | 0.00 | 91 | 1031.8 |
| 20260509224539 | 12 | 295 | 6.4 | 11.3 | 0.00 | 0.00 | 0.00 | 91 | 1031.8 |
| 20260509223038 | 12 | 288 | 4.8 | 9.7 | 0.00 | 0.00 | 0.00 | 91 | 1031.6 |
| 20260509221538 | 12 | 293 | 6.4 | 12.9 | 0.00 | 0.00 | 0.00 | 91 | 1031.4 |
| 20260509220036 | 12 | 274 | 4.8 | 11.3 | 0.00 | 0.00 | 0.00 | 92 | 1031.1 |
| 20260509214530 | -17 | 0.0 | 0.0 | 0.00 | 0.00 | 0.00 | 1031.0 | ||
| 20260509213025 | -17 | 0.0 | 0.0 | 0.00 | 0.00 | 0.00 | 1030.7 | ||
| 20260509211545 | -17 | 0.0 | 0.0 | 0.00 | 0.00 | 0.00 | 1030.5 | ||
| 20260509210017 | -17 | 0.0 | 0.0 | 0.00 | 0.00 | 0.00 | 1030.3 | ||
| 20260509204511 | -17 | 0.0 | 0.0 | 0.00 | 0.00 | 0.00 | 1030.2 | ||
| 20260509203013 | -17 | 0.0 | 0.0 | 0.00 | 0.00 | 0.00 | 1030.1 | ||
| 20260509201502 | -17 | 0.0 | 0.0 | 0.00 | 0.00 | 0.00 | 1029.9 | ||
| 20260509194556 | -17 | 0.0 | 0.0 | 0.00 | 0.00 | 0.00 | 1029.6 | ||
| 20260509193050 | -17 | 0.0 | 0.0 | 0.00 | 0.00 | 0.00 | 1029.4 | ||
| 20260509191546 | -17 | 0.0 | 0.0 | 0.00 | 0.00 | 0.00 | 1029.2 | ||
| 20260509190047 | -17 | 0.0 | 0.0 | 0.00 | 0.00 | 0.00 | 1029.1 | ||
| 20260509184536 | -17 | 0.0 | 0.0 | 0.00 | 0.00 | 0.00 | 1029.0 | ||
| 20260509183036 | 11 | 304 | 4.8 | 11.3 | 0.00 | 0.00 | 0.00 | 93 | 1028.8 |
| 20260509181530 | 11 | 321 | 4.8 | 9.7 | 0.00 | 0.00 | 0.00 | 93 | 1028.6 |
| 20260509180029 | 11 | 308 | 4.8 | 11.3 | 0.00 | 0.00 | 0.00 | 93 | 1028.5 |
| 20260509174528 | 11 | 316 | 6.4 | 12.9 | 0.00 | 0.00 | 0.00 | 93 | 1028.4 |
| 20260509173027 | 11 | 324 | 8.0 | 14.5 | 0.00 | 0.00 | 0.00 | 93 | 1028.4 |
| 20260509171525 | 11 | 322 | 8.0 | 16.1 | 0.00 | 0.00 | 0.00 | 93 | 1028.4 |
| 20260509170024 | 11 | 311 | 6.4 | 12.9 | 0.00 | 0.00 | 0.00 | 93 | 1028.4 |